Regional Weather Roundup
Issued by NWS

Home | Current Version | Previous Version | Graphics & Text | Print | Product List | Glossary On
Versions: 1 2 3 4 5 6 7 8 9 10 11 12 13 14 15 16 17 18 19 20 21 22 23 24 25 26 27 28 29 30 31 32 33 34 35 36 37 38 39 40 41 42 43 44 45 46 47 48 49 50
000
ASUS45 KABQ 240510
RWRNM
NEW MEXICO REGIONAL WEATHER ROUNDUP
NATIONAL WEATHER SERVICE ALBUQUERQUE NM
1100 PM MDT SAT MAY 23 2015

NOTE: "FAIR" MEANS FEW OR NO CLOUDS BELOW 12,000 FEET AGL WITH NO
       SIGNIFICANT WEATHER OR OBSTRUCTIONS TO VISION.

      THIS PRODUCT IS RELEASED AS TWO VERSIONS.  ONE VERSION NEAR
      THE TOP OF THE HOUR CONTAINING PRELIMINARY DATA FROM ALBUQUERQUE
      AND OTHER STATIONS.  A FINAL VERSION WITH ADDITIONAL DATA IS
      ISSUED ABOUT 10 MINUTES AFTER THE HOUR.

NMZ501-503-504-510>518-240600-
NORTHWEST PLATEAU/NORTHCENTRAL MOUNTAINS

CITY           SKY/WX    TMP DP  RH WIND       PRES   REMARKS
FARMINGTON     LGT RAIN  47  43  86 W3        30.02S
LOS ALAMOS     CLEAR     51  24  35 NW5       30.03R
SANTA FE       PTCLDY    49  28  44 NW6       29.98R
TAOS           CLEAR     43  27  52 N3        30.03R
ANGEL FIRE     FAIR      35  30  82 CALM      30.07R

$$
NMZ402-403-502-505>509-240600-
WESTCENTRAL MOUNTAINS/SOUTHWEST MOUNTAINS

CITY           SKY/WX    TMP DP  RH WIND       PRES   REMARKS
GALLUP         PTCLDY    45  34  65 CALM      30.07R
GRANTS         PTCLDY    46  35  63 NW12G22   30.07R
SILVER CITY    CLEAR     54  21  28 NW12      30.04R

$$
NMZ407-409-411-412-240600-
SOUTHERN DESERTS

CITY           SKY/WX    TMP DP  RH WIND       PRES   REMARKS
LORDSBURG      FAIR      61  27  27 W13       29.99R
DEMING         CLEAR     61  21  21 W9        29.98R
LAS CRUCES     CLEAR     59  23  25 W9        29.98R
HOLLOMAN AFB   CLEAR     64  24  22 SW8       29.92R
ALAMOGORDO     CLEAR     57  19  23 SE3       29.94R
T OR C         CLEAR     63  22  20 W7        29.96R

$$
NMZ519>523-240600-
CENTRAL VALLEYS/CENTRAL HIGHLANDS

CITY           SKY/WX    TMP DP  RH WIND       PRES   REMARKS
ALBUQUERQUE    PTCLDY    62  26  25 N12       29.98R
DOUBLE EAGLE   PTCLDY    54  31  42 NW13      30.00R
MORIARTY ARPT  FAIR      54  26  34 NW10      30.00R
CLINES CORNERS PTCLDY    48  30  49 W12       30.00R
BELEN          FAIR      55  28  35 NW8       29.97R
SOCORRO        FAIR      62  24  23 NW10      29.95R

$$
NMZ524>526-539-540-240600-
SOUTHCENTRAL MOUNTAINS

CITY           SKY/WX    TMP DP  RH WIND       PRES   REMARKS
RUIDOSO        CLEAR     54  16  22 SW15      30.05R

$$
NMZ527>531-240600-
NORTHEAST HIGHLANDS/NORTHEAST PLAINS

CITY           SKY/WX    TMP DP  RH WIND       PRES   REMARKS
LAS VEGAS      CLEAR     49  25  39 SW5       29.99R
RATON          CLEAR     47  33  58 N9        29.95R
CLAYTON        LGT RAIN  57  55  93 S9        29.93R

$$
NMZ532>537-240600-
EASTCENTRAL PLAINS

CITY           SKY/WX    TMP DP  RH WIND       PRES   REMARKS
TUCUMCARI      PTCLDY    57  43  59 CALM      29.85R
CANNON AFB     CLEAR     56  51  85 S8        29.91R
CLOVIS AIRPORT PTCLDY    55  48  76 S12       29.91R

$$
NMZ028-029-538-240600-
SOUTHEAST PLAINS

CITY           SKY/WX    TMP DP  RH WIND       PRES   REMARKS
ROSWELL        CLEAR     61  28  28 SE13      29.89R
ARTESIA        CLEAR     61  52  72 S14       29.91R
CARLSBAD       CLEAR     60  53  77 S8        29.89R
HOBBS          LGT RAIN  54  54 100 S6        29.92F


$$



USA.gov is the U.S. government's official web portal to all federal, state and local government web resources and services.